FW5819 Weather Reports


Display with metric or nautical units.
time (UTC)temp
F
wind
direction
speed
MPH
gust
MPH
rain 1hr
in
rain 24hr
in
rain mn
in
humidity
%
barometer
mb
20260505080048 66 173 4.0 10.0 0.00 0.00 0.00 64 1002.4
20260505074548 67 271 4.0 9.0 0.00 0.00 0.00 63 1002.6
20260505073046 68 227 4.0 15.0 0.00 0.00 0.00 62 1002.5
20260505071548 68 292 2.0 11.0 0.00 0.00 0.00 61 1002.5
20260505070044 68 313 3.0 14.0 0.00 0.00 0.00 60 1002.7
20260505064554 68 246 5.0 18.0 0.00 0.00 0.00 60 1002.5
20260505063038 68 130 5.0 16.0 0.00 0.00 0.00 61 1002.4
20260505061532 68 299 6.0 14.0 0.00 0.00 0.00 63 1002.6
20260505060036 67 259 5.0 14.0 0.00 0.00 0.00 64 1002.5
20260505054537 67 155 5.0 12.0 0.00 0.00 0.00 65 1002.5
20260505053059 67 149 5.0 14.0 0.00 0.00 0.00 66 1002.7
20260505051535 66 148 5.0 13.0 0.00 0.00 0.00 67 1002.9
20260505041542 66 215 4.0 11.0 0.00 0.00 0.00 68 1003.3
20260505040038 65 155 4.0 12.0 0.00 0.00 0.00 69 1003.3
20260505034535 65 86 3.0 7.0 0.00 0.00 0.00 70 1003.5
20260505033045 64 153 2.0 7.0 0.00 0.00 0.00 69 1003.6
20260505031535 65 147 2.0 8.0 0.00 0.00 0.00 68 1003.8
20260505030035 65 223 2.0 7.0 0.00 0.00 0.00 67 1003.8
20260505024533 66 186 0.0 7.0 0.00 0.00 0.00 66 1003.9
20260505023035 66 148 2.0 6.0 0.00 0.00 0.00 64 1003.8
20260505021533 67 174 4.0 14.0 0.00 0.00 0.00 63 1003.8
20260505020037 67 215 2.0 15.0 0.00 0.00 0.00 62 1003.7
20260505014536 68 199 4.0 13.0 0.00 0.00 0.00 61 1003.5
20260505013033 68 192 3.0 10.0 0.00 0.00 0.00 60 1003.7
20260505011554 69 188 4.0 14.0 0.00 0.00 0.00 59 1003.5
20260505010035 69 129 3.0 11.0 0.00 0.00 0.00 58 1003.4
20260505004534 69 196 2.0 7.0 0.00 0.00 0.00 57 1003.2
20260505003031 70 246 3.0 10.0 0.00 0.00 0.00 56 1003.0
20260505001537 71 252 4.0 13.0 0.00 0.00 0.00 54 1002.9
20260505000041 71 160 3.0 14.0 0.00 0.00 0.00 53 1002.6
20260504234534 72 125 4.0 21.0 0.00 0.00 0.00 53 1002.6
20260504233034 73 148 6.0 15.0 0.00 0.00 0.00 53 1002.4
20260504231534 74 212 2.0 10.0 0.00 0.00 0.00 55 1002.1
20260504230037 74 211 5.0 15.0 0.00 0.00 0.00 54 1002.3
20260504224541 75 199 5.0 14.0 0.00 0.00 0.00 54 1002.4
20260504223031 75 189 3.0 18.0 0.00 0.00 0.00 55 1002.6
20260504221532 75 249 5.0 17.0 0.00 0.00 0.00 53 1002.7
20260504220034 73 207 4.0 12.0 0.00 0.00 0.00 58 1002.7
20260504214534 73 205 2.0 20.0 0.00 0.00 0.00 59 1002.9
20260504213037 74 234 6.0 15.0 0.00 0.00 0.00 55 1003.0
20260504211535 73 184 3.0 13.0 0.00 0.00 0.00 57 1003.0
20260504210034 76 327 5.0 16.0 0.00 0.00 0.00 53 1003.0
20260504204531 75 196 5.0 23.0 0.00 0.00 0.00 54 1003.2
20260504203041 75 221 6.0 23.0 0.00 0.00 0.00 54 1003.3
20260504201534 75 211 5.0 19.0 0.00 0.00 0.00 53 1003.5
20260504200036 74 196 7.0 15.0 0.00 0.00 0.00 51 1003.9
20260504194535 74 171 5.0 19.0 0.00 0.00 0.00 52 1004.1
20260504193035 74 161 6.0 15.0 0.00 0.00 0.00 51 1004.3
20260504191532 73 207 8.0 20.0 0.00 0.00 0.00 51 1004.5
20260504190038 73 196 5.0 19.0 0.00 0.00 0.00 52 1004.8
20260504184535 73 171 4.0 15.0 0.00 0.00 0.00 51 1004.9
20260504183035 73 204 4.0 15.0 0.00 0.00 0.00 49 1005.1
20260504181538 73 290 6.0 14.0 0.00 0.00 0.00 47 1005.3
20260504180035 72 225 6.0 20.0 0.00 0.00 0.00 49 1005.4
20260504174538 72 237 5.0 16.0 0.00 0.00 0.00 51 1005.4
20260504173035 72 285 5.0 15.0 0.00 0.00 0.00 52 1005.5
20260504171545 72 270 6.0 13.0 0.00 0.00 0.00 52 1005.7
20260504081535 52 238 4.0 11.0 0.00 0.00 0.00 64 1008.3